#timestamp,LO_Frequency,Hit,StdDev 
1509426015.8,286046998.2,N
1509426035.6,286046998.6,N
1509426055.4,286046995.3,N
1509426075.3,286046995.7,N
1509426095.1,286046993.6,N
1509426115.8,286046993.8,N
1509426135.7,286046991.4,N
1509426155.5,286046989.8,N
1509426175.3,286046990.8,N
1509426195.2,286046990.8,N
1509426215.0,286046988.8,N
1509426215.9,286046988.8,N
1509426235.8,286046991.6,N
1509426255.6,286046994.2,N
1509426275.4,286046994.0,N
1509426295.3,286046995.4,N
1509426315.1,286046998.3,N
1509426316.0,286046998.3,N
1509426335.8,286047000.5,N
1509426355.7,286047001.0,N
1509426375.5,286047000.1,N
1509426395.3,286047004.0,N
1509426415.2,286047006.7,N
1509426435.9,286047007.4,N
1509426455.7,286047007.4,N
1509426475.6,286047005.0,N
1509426495.4,286047002.9,N
1509426515.2,286047000.0,N
1509426535.1,286046995.7,N
1509426536.0,286046995.7,N
1509426555.8,286046993.6,N
1509426575.6,286046992.4,N
1509426595.5,286046991.6,N
1509426615.3,286046987.2,N
1509426635.1,286046985.5,N
1509426655.9,286046984.0,N
1509426675.7,286046984.2,N
1509426695.5,286046985.2,N
1509426715.4,286046986.7,N
1509426735.2,286046983.5,N
1509426755.0,286046979.5,N
1509426756.0,286046979.5,N
1509426775.8,286046981.2,N
1509426795.6,286046985.2,N
1509426815.5,286046984.8,N
1509426835.3,286046985.4,N
1509426855.1,286046986.7,N
1509426875.9,286046986.0,N
1509426895.7,286046984.6,N
1509426915.5,286046986.2,N
1509426935.4,286046989.1,N
1509426955.2,286046992.8,N
1509426975.0,286046994.1,N
1509426975.9,286046994.1,N
1509426995.8,286046995.8,N
1509427015.6,286046994.1,N
1509427035.4,286046995.8,N
1509427055.3,286046994.9,N
1509427075.1,286046998.8,N
1509427076.0,286046998.8,N
1509427095.8,286046998.5,N
1509427115.7,286046999.1,N
1509427135.5,286046999.2,N
1509427155.3,286046993.8,N
1509427175.2,286046996.2,N
1509427195.9,286046993.8,N
1509427215.7,286046994.3,N
1509427235.6,286046992.4,N
1509427255.4,286046994.1,N
1509427275.2,286046991.8,N
1509427295.1,286046994.0,N
1509427296.0,286046994.0,N
1509427315.8,286046994.2,N
1509427335.6,286046994.0,N
1509427355.5,286046991.8,N
1509427375.3,286046992.5,N
1509427395.1,286046991.0,N
1509427415.9,286046992.9,N
1509427435.7,286046989.8,Y
1509427455.6,286046999.0,P
1509427475.4,286047000.2,N
1509427495.2,286047002.2,N
1509427515.1,286047005.4,N
1509427516.0,286047005.4,N
1509427535.8,286047006.7,N
1509427555.6,286047010.3,N
1509427575.5,286047013.9,N
1509427595.3,286047011.0,N
1509427615.1,286047013.5,N
1509427635.9,286047011.1,N
1509427655.7,286047010.9,N
1509427675.5,286047009.9,N
1509427695.4,286047012.1,N
1509427715.2,286047010.0,N
1509427735.0,286047011.3,N
1509427735.9,286047011.3,N
1509427755.8,286047011.2,N
1509427775.6,286047009.9,N
1509427795.4,286047011.0,N
1509427815.3,286047011.7,N
1509427835.1,286047014.0,N
1509427855.8,286047017.2,Y
1509427875.7,286047006.6,P
1509427895.5,286047008.0,P
1509427915.4,286047010.8,P
1509427935.2,286047009.8,Y
1509427955.0,286047003.5,P
1509427955.9,286047003.5,N
1509427975.8,286047005.5,N
1509427995.6,286047004.7,N
1509428015.4,286047007.0,Y
1509428035.3,286047001.1,P
1509428055.1,286047002.5,N
1509428075.8,286047000.3,N
1509428095.7,286047002.1,N
1509428115.5,286047001.7,N
1509428135.3,286047000.4,N
1509428155.2,286046996.7,N
1509428175.0,286046997.0,N
1509428175.9,286046997.0,N
1509428195.8,286046996.9,N
1509428215.6,286046999.3,N
1509428235.4,286046998.9,N
1509428255.3,286046999.4,N
1509428275.1,286046997.4,N
1509428276.0,286046997.4,N
1509428295.8,286046995.8,N
1509428315.7,286046995.5,N
1509428335.5,286046995.7,N
1509428355.3,286046991.7,Y
1509428375.2,286046989.8,P
1509428395.9,286046985.5,P
1509428415.7,286046989.9,N
1509428435.6,286046991.5,N
1509428455.4,286046990.1,N
1509428475.2,286046990.7,N
1509428495.1,286046989.6,N
1509428496.0,286046989.6,N
1509428515.8,286046984.9,Y
1509428535.7,286046991.9,P
1509428555.5,286046993.1,P
1509428575.3,286046991.6,P
1509428595.2,286046989.8,Y
1509428615.0,286046997.8,P
1509428615.9,286046997.8,N
1509428635.7,286047001.0,N
1509428655.6,286046999.6,N
1509428675.4,286047000.5,N
1509428695.2,286047000.8,N
1509428715.1,286046996.5,N
1509428716.0,286046996.5,N
1509428735.8,286047000.4,N
1509428755.6,286047000.6,N
1509428775.5,286047000.6,N
1509428795.3,286046998.4,N
1509428815.2,286046996.8,N
1509428835.9,286046996.8,N
1509428855.7,286046997.9,N
1509428875.6,286046997.2,N
1509428895.4,286046995.1,N
1509428915.2,286046994.0,N
1509428935.1,286046996.3,N
1509428936.0,286046996.3,N
1509428955.8,286046995.6,N
1509428975.6,286046998.5,N
1509428995.5,286046997.7,N
1509429015.3,286046991.7,Y
1509429035.1,286046995.4,P
1509429055.9,286046994.0,P
1509429075.7,286046992.7,P
1509429095.5,286046999.3,N
1509429115.4,286046996.7,N
1509429135.2,286046998.7,N
1509429155.1,286047000.3,N
1509429156.0,286047000.3,N
1509429175.8,286047000.0,N
1509429195.6,286047000.0,N
1509429215.5,286046998.8,N
1509429235.3,286047002.8,N
1509429255.1,286047002.5,N
1509429275.9,286046998.5,N
1509429295.7,286046993.7,N
1509429315.5,286046993.6,N
1509429335.4,286046993.6,N
1509429355.2,286046999.5,N
1509429375.0,286046995.8,N
1509429375.9,286046995.8,N
1509429395.8,286046997.9,N
1509429415.6,286046997.1,N
1509429435.4,286046999.1,N
1509429455.3,286046994.9,N
1509429475.1,286046995.6,N
1509429476.0,286046995.6,N
1509429495.8,286046995.6,N
1509429515.7,286046996.8,N
1509429535.5,286046997.2,N
1509429555.3,286046997.5,N
1509429575.2,286046995.3,N
1509429595.9,286046994.9,N
